Location: Calvera
(42.3882°N, 0.6137°E)
Time: 20:11:58
(UTC+00:00)

CZ-2C R/B - Pass Details

Date: 28 October 2020
Orbit: 667 x 785 km, 98.2° (Epoch: 23 November)

Event Time Altitude Azimuth Distance (km) Brightness Sun altitude
Rises 04:01:50 0° 12° (NNE) 3,207 6.0 -27.2°
Reaches altitude 10° 04:04:10 10° 12° (NNE) 2,261 5.1 -26.8°
Enters shadow 04:08:50 78° 349° (N) 745 2.3 -25.9°
